TimeEDT,TemperatureF,Dew PointF,Humidity,Sea Level PressureIn,VisibilityMPH,Wind Direction,Wind SpeedMPH,Gust SpeedMPH,PrecipitationIn,Events,Conditions,WindDirDegrees,DateUTC
12:53 AM,75.9,72.0,87,29.89,10.0,Calm,Calm,-,N/A,,Partly Cloudy,0,2013-10-07 04:53:00
1:53 AM,75.0,72.0,90,29.88,10.0,Calm,Calm,-,N/A,,Clear,0,2013-10-07 05:53:00
2:53 AM,72.0,70.0,93,29.87,10.0,Calm,Calm,-,N/A,,Clear,0,2013-10-07 06:53:00
3:53 AM,72.0,70.0,93,29.86,10.0,Calm,Calm,-,N/A,,Clear,0,2013-10-07 07:53:00
4:53 AM,73.9,70.0,87,29.85,10.0,South,4.6,-,N/A,,Clear,170,2013-10-07 08:53:00
5:53 AM,73.0,70.0,90,29.85,10.0,Calm,Calm,-,N/A,,Partly Cloudy,0,2013-10-07 09:53:00
6:53 AM,73.9,71.1,91,29.87,10.0,SSW,4.6,-,N/A,,Clear,210,2013-10-07 10:53:00
7:53 AM,73.9,72.0,93,29.87,10.0,SSW,3.5,-,N/A,,Clear,200,2013-10-07 11:53:00
8:53 AM,78.1,73.0,84,29.89,10.0,SW,5.8,-,N/A,,Clear,220,2013-10-07 12:53:00
9:53 AM,82.0,73.9,76,29.89,10.0,SW,6.9,-,N/A,,Partly Cloudy,220,2013-10-07 13:53:00
10:53 AM,84.9,72.0,65,29.89,10.0,SW,12.7,-,N/A,,Scattered Clouds,220,2013-10-07 14:53:00
11:53 AM,87.1,70.0,57,29.88,10.0,SW,9.2,17.3,N/A,,Scattered Clouds,230,2013-10-07 15:53:00
12:53 PM,87.1,68.0,53,29.85,10.0,SW,13.8,-,N/A,,Mostly Cloudy,230,2013-10-07 16:53:00
1:53 PM,89.1,66.0,46,29.83,10.0,SSW,9.2,18.4,N/A,,Partly Cloudy,210,2013-10-07 17:53:00
2:53 PM,86.0,69.1,57,29.83,10.0,SW,9.2,-,N/A,,Overcast,230,2013-10-07 18:53:00
3:13 PM,78.8,73.4,83,29.83,2.5,WNW,5.8,-,0.02,Rain,Light Rain,290,2013-10-07 19:13:00
3:20 PM,78.8,73.4,83,29.84,6.0,WNW,11.5,-,0.02,Rain,Light Rain,290,2013-10-07 19:20:00
3:39 PM,75.2,71.6,89,29.85,2.0,West,8.1,-,0.04,Rain,Rain,260,2013-10-07 19:39:00
3:53 PM,73.9,70.0,87,29.86,2.0,WSW,10.4,23.0,0.05,Rain,Rain,240,2013-10-07 19:53:00
4:53 PM,73.0,70.0,90,29.82,4.0,SW,5.8,-,0.27,Rain,Light Rain,220,2013-10-07 20:53:00
5:53 PM,73.0,71.1,93,29.83,10.0,South,4.6,-,0.02,,Mostly Cloudy,180,2013-10-07 21:53:00
6:53 PM,73.9,71.1,91,29.83,10.0,South,8.1,-,0.00,Rain,Light Rain,180,2013-10-07 22:53:00
7:53 PM,73.9,71.1,91,29.84,10.0,South,5.8,-,0.00,,Clear,190,2013-10-07 23:53:00
8:53 PM,73.0,71.1,93,29.86,10.0,SSW,4.6,-,N/A,,Scattered Clouds,200,2013-10-08 00:53:00
9:53 PM,73.0,70.0,90,29.86,10.0,SSW,6.9,-,N/A,,Clear,200,2013-10-08 01:53:00
10:53 PM,73.9,71.1,91,29.86,10.0,SSW,6.9,-,N/A,,Clear,200,2013-10-08 02:53:00
11:53 PM,73.9,71.1,91,29.86,10.0,SSW,6.9,-,N/A,,Clear,210,2013-10-08 03:53:00